Regional Weather Roundup
Issued by NWS

Home | Current Version | Previous Version | Graphics & Text | Print | Product List | Glossary On
Versions: 1 2 3 4 5 6 7 8 9 10 11 12 13 14 15 16 17 18 19 20 21 22 23 24 25 26 27 28 29 30 31 32 33 34 35 36 37 38 39 40 41 42 43 44 45 46 47 48 49 50
000
ASUS45 KABQ 030910
RWRNM
NEW MEXICO REGIONAL WEATHER ROUNDUP
NATIONAL WEATHER SERVICE ALBUQUERQUE NM
200 AM MST SAT DEC 03 2016

NOTE: "FAIR" MEANS FEW OR NO CLOUDS BELOW 12,000 FEET AGL WITH NO
       SIGNIFICANT WEATHER OR OBSTRUCTIONS TO VISION.

      THIS PRODUCT IS RELEASED AS TWO VERSIONS.  ONE VERSION NEAR
      THE TOP OF THE HOUR CONTAINING PRELIMINARY DATA FROM ALBUQUERQUE
      AND OTHER STATIONS.  A FINAL VERSION WITH ADDITIONAL DATA IS
      ISSUED ABOUT 10 MINUTES AFTER THE HOUR.

NMZ501-503-504-510>518-031000-
NORTHWEST PLATEAU/NORTHCENTRAL MOUNTAINS

CITY           SKY/WX    TMP DP  RH WIND       PRES   REMARKS
FARMINGTON     CLOUDY    25  23  92 W3        30.11R
LOS ALAMOS     MOCLDY    28  26  89 E3        30.10S
SANTA FE       LGT SNOW  28  25  88 SW3       30.10  FOG
TAOS           FAIR      19  10  68 N6        30.12R WCI  11
ANGEL FIRE     CLOUDY    18  15  89 CALM      30.11S

$$
NMZ402-403-502-505>509-031000-
WESTCENTRAL MOUNTAINS/SOUTHWEST MOUNTAINS

CITY           SKY/WX    TMP DP  RH WIND       PRES   REMARKS
GALLUP         FAIR      26  20  77 E5        30.06  WCI  20
GRANTS         CLOUDY    30  24  78 CALM      30.09S

$$
NMZ407-409-411-412-031000-
SOUTHERN DESERTS

CITY           SKY/WX    TMP DP  RH WIND       PRES   REMARKS
DEMING         LGT RAIN  40  35  83 NE22G29   29.93F WCI  30
LAS CRUCES     CLOUDY    40  31  68 NW14G24   29.95R WCI  33
HOLLOMAN AFB   LGT RAIN  43  28  56 NW9       29.99R
T OR C         CLOUDY    38  26  62 NE21G35   30.00R WCI  28

$$
NMZ519>523-031000-
CENTRAL VALLEYS/CENTRAL HIGHLANDS

CITY           SKY/WX    TMP DP  RH WIND       PRES   REMARKS
ALBUQUERQUE    FLURRIES  34  30  85 NE6       30.11S WCI  29
DOUBLE EAGLE   LGT SNOW  30  29  96 CALM      30.10F
MORIARTY ARPT  FLURRIES  29  23  79 NE3       30.13F
CLINES CORNERS LGT SNOW  23  21  92 E12       30.09F FOG     WCI  12
BELEN          CLOUDY    32  32 100 W7        30.09F WCI  26
SOCORRO        CLOUDY    36  26  66 N14G22    30.09S WCI  27

$$
NMZ524>526-539-540-031000-
SOUTHCENTRAL MOUNTAINS

CITY           SKY/WX    TMP DP  RH WIND       PRES   REMARKS
RUIDOSO        LGT SNOW  27  25  93 S7        30.07R WCI  19

$$
NMZ527>531-031000-
NORTHEAST HIGHLANDS/NORTHEAST PLAINS

CITY           SKY/WX    TMP DP  RH WIND       PRES   REMARKS
LAS VEGAS      CLOUDY    22  21  96 N7        30.13  WCI  13
RATON          CLOUDY    23  19  85 N5        30.12F WCI  17
CLAYTON        LGT SNOW  28  28 100 N5        30.17F FOG     WCI  23

$$
NMZ532>537-031000-
EASTCENTRAL PLAINS

CITY           SKY/WX    TMP DP  RH WIND       PRES   REMARKS
TUCUMCARI      LGT SNOW  32  30  92 N13       30.15F FOG     WCI  22
CANNON AFB     LGT RAIN  33  33 100 NE16      30.11S WCI  23
CLOVIS AIRPORT CLOUDY    34  30  86 N16       30.11F WCI  23

$$
NMZ028-029-538-031000-
SOUTHEAST PLAINS

CITY           SKY/WX    TMP DP  RH WIND       PRES   REMARKS
ROSWELL        LGT SNOW  35  32  88 N16       30.09F FOG     WCI  25
ARTESIA        LGT RAIN  36  36 100 N20       30.09F WCI  25
CARLSBAD       CLOUDY    40  39  97 NW20      30.05R WCI  30


$$




USA.gov is the U.S. government's official web portal to all federal, state and local government web resources and services.